ギャラッド彗星

C/2008 E3 ( Garradd )

English version
Home page
Updated on March 27, 2010

---------------------------------------------------------------------

・ プロフィール

発見日 2008年3月5日
発見光度 17.8等
発見者 G. J. Garradd (Siding Spring)

・ 写真集

・ 軌道要素

The following orbital elements are taken from MPC 68392:

Epoch 2008 Aug. 2.0 TT = JDT 2454680.5
T 2008 Aug. 2.2016 TT                                   MPC
q   5.531041             (2000.0)            P               Q
z  +0.000258       Peri.  218.0922      +0.0581358      -0.3637801
 +/-0.000005       Node   105.6750      -0.4980465      +0.7965079
e   0.998574       Incl.  105.0766      -0.8651993      -0.4829484
From 103 observations 2008 Mar. 5-2010 Jan. 14, mean residual 0".5.

・ 星図

・ 光度変化

        m1 = -5.2 + 5 logΔ + 25 log r

---------------------------------------------------------------------

軌道要素はMPCのEphemerides and Orbital Elementsに掲載されたものです。
星図はステラナビゲータ Ver.8 (アストロアーツ) で作成したものです。
光度グラフはComet for Windowsで作成したものです。

---------------------------------------------------------------------

Copyright(C) Seiichi Yoshida (comet@aerith.net). All rights reserved.